Content
SEND FEEDBACK

Daily
Averages
Monthly
Summary
Russia

CHUKREYEVKA, RUSSIA


Home > Europe > Russia
Elevation: 400 feet     Latitude: 55 01N     Longitude: 073 22E

WEATHER
 
SELECT A DAY
Number of Records: 171,375;   Date Range: 1/29/98 - 7/20/14
 
SHARE

PRINT THIS DATA

[ ← Previous Day ]
WEATHER ALMANAC - FEBRUARY 13, 2013
[ Next Day → ]
[ °C ]   °F
Weather ElementAverageHighLow
Temperature14.2 °F21.2 °F (11:30 pm)8.6 °F (12:30 am)
Dewpoint9.9 °F17.6 °F (10:30 pm)5 °F (12:30 am)
Humidity82.3 %93 % (9:30 pm)55 % (1:00 pm)
Barometer30.27 in30.63 in (1:00 am)30.09 in (7:30 pm)
Wind Speed11 mph15.7 mph (6:30 pm)
Wind Gust17.9 mph (11:30 am)
Weather ElementAverage
Visibility4.3 mi
Wind DirectionWSW (234.6 °)

Weather ElementTotal
Precipitation---
Heating Degree Days50.1 (Base 65)
Averaged from 50 records on February 13, 2013
WEATHER CONDITIONS BREAKOUT
WIND DIRECTION BREAKOUT
WEATHER BY HOUR - FEBRUARY 13, 2013
[ °C ]   °F
Local TimeTemperatureDewpointHumidityBarometerVisibilityWind DirectionWind SpeedGust SpeedPrecipitationEventsConditions
12:30 AM8.6 °F5.0 °F85 %30.60 in3.7 miSouth (180°)8.9 mphMostly Cloudy
1:00 AM9.0 °F6.0 °F83 %30.63 in6.0 miSouth (190°)4.5 mphOvercast
1:00 AM8.6 °F6.8 °F92 %30.57 in3.7 miSouth (180°)11.2 mphMostly Cloudy
1:30 AM8.6 °F6.8 °F92 %30.57 in5.0 miSouth (190°)11.2 mphMostly Cloudy
2:00 AM10.4 °F8.6 °F92 %30.57 inSouth (190°)8.9 mphClear
2:30 AM10.4 °F8.6 °F92 %30.54 inSouth (190°)11.2 mphClear
3:00 AM12.2 °F8.6 °F85 %30.51 inSouth (180°)11.2 mphClear
3:30 AM12.2 °F8.6 °F85 %30.51 inSouth (180°)8.9 mphClear
4:00 AM12.2 °F8.6 °F85 %30.48 inSouth (180°)8.9 mphClear
4:30 AM14.0 °F10.4 °F86 %30.45 inSouth (190°)8.9 mphClear
5:00 AM12.2 °F10.4 °F92 %30.45 inSouth (190°)11.2 mphClear
6:00 AM14.0 °F10.4 °F86 %30.39 inSouth (190°)13.4 mphClear
6:30 AM14.0 °F10.4 °F86 %30.39 in5.0 miSSW (200°)11.2 mphMostly Cloudy
7:00 AM13.0 °F11.0 °F90 %30.43 in6.0 miSouth (190°)4.5 mphClear
7:00 AM14.0 °F10.4 °F86 %30.39 in3.7 miSSW (200°)11.2 mphMostly Cloudy
7:30 AM12.2 °F10.4 °F92 %30.36 in3.7 miSouth (190°)8.9 mphMostly Cloudy
8:00 AM12.2 °F8.6 °F85 %30.33 in3.7 miSouth (190°)8.9 mphMostly Cloudy
8:30 AM12.2 °F8.6 °F85 %30.33 in3.7 miSouth (190°)8.9 mphScattered Clouds
9:00 AM12.2 °F8.6 °F85 %30.30 in3.7 miSouth (190°)11.2 mphScattered Clouds
9:30 AM12.2 °F8.6 °F85 %30.27 in3.7 miSSW (200°)11.2 mphScattered Clouds
10:00 AM10.4 °F6.8 °F85 %30.27 inSW (230°)6.7 mphClear
10:30 AM12.2 °F6.8 °F79 %30.24 inSW (220°)11.2 mphClear
11:00 AM14.0 °F6.8 °F73 %30.24 inWSW (240°)13.4 mphClear
11:30 AM14.0 °F8.6 °F79 %30.21 inWSW (240°)11.2 mph17.9 mphClear
12:00 PM14.0 °F6.8 °F73 %30.21 inWSW (250°)11.2 mphClear
12:30 PM14.0 °F6.8 °F73 %30.21 inWSW (250°)11.2 mphClear
1:00 PM15.0 °F6.0 °F55 %30.24 in12.0 miSW (230°)6.7 mphOvercast
1:00 PM14.0 °F8.6 °F79 %30.21 inWSW (250°)11.2 mphClear
1:30 PM14.0 °F8.6 °F79 %30.18 inWest (260°)11.2 mphClear
2:00 PM14.0 °F8.6 °F79 %30.18 inWest (260°)11.2 mphClear
2:30 PM15.8 °F8.6 °F73 %30.18 inWest (260°)11.2 mphClear
3:00 PM15.8 °F8.6 °F73 %30.15 in6.2 miWSW (250°)11.2 mphMostly Cloudy
3:30 PM15.8 °F8.6 °F73 %30.15 in6.2 miWest (260°)11.2 mphMostly Cloudy
4:00 PM15.8 °F8.6 °F73 %30.12 in6.2 miWest (260°)8.9 mphMostly Cloudy
4:30 PM15.8 °F8.6 °F73 %30.12 in6.2 miWSW (250°)8.9 mphMostly Cloudy
5:00 PM15.8 °F10.4 °F79 %30.12 in6.2 miWSW (250°)11.2 mphMostly Cloudy
5:30 PM17.6 °F10.4 °F73 %30.12 in6.2 miWest (280°)13.4 mphSnowLight Snow
6:00 PM15.8 °F10.4 °F79 %30.12 in2.5 miWest (280°)13.4 mphSnowLight Snow
6:30 PM15.8 °F10.4 °F79 %30.12 in3.7 miWest (280°)15.7 mphSnowLight Snow
7:00 PM16.0 °F11.0 °F71 %30.16 in5.0 miWest (260°)6.7 mphSnowLight Snow
7:00 PM15.8 °F12.2 °F86 %30.12 in2.5 miWest (280°)15.7 mphSnowLight Snow Showers
7:30 PM15.8 °F12.2 °F86 %30.09 in3.7 miWNW (290°)15.7 mphSnowLight Snow Showers
8:00 PM17.6 °F12.2 °F79 %30.09 in2.2 miWNW (290°)13.4 mphSnowLight Snow Showers
8:30 PM17.6 °F14.0 °F86 %30.09 in2.2 miWNW (290°)13.4 mphSnowLight Snow Showers
9:00 PM17.6 °F14.0 °F86 %30.09 in2.2 miWNW (290°)13.4 mphSnowLight Snow Showers
9:30 PM17.6 °F15.8 °F93 %30.09 in1.9 miWNW (290°)11.2 mphSnowLight Snow Showers
10:00 PM19.4 °F15.8 °F86 %30.09 in1.9 miWNW (290°)15.7 mphSnowLight Snow Showers
10:30 PM19.4 °F17.6 °F93 %30.09 in2.8 miWNW (290°)15.7 mphSnowLight Snow Showers
11:00 PM19.4 °F15.8 °F86 %30.09 in3.7 miWNW (290°)13.4 mphSnowLight Snow Showers
11:30 PM21.2 °F17.6 °F86 %30.09 in3.7 miWNW (290°)13.4 mphSnowLight Snow Showers
Hourly data recorded from UNOO, located miles away from Chukreyevka, Russia







STORIES FROM OUR PARTNERS